Content
SEND FEEDBACK

Daily
Averages
Monthly
Summary
United States of America

DOTHAN, ALABAMA


Home > North America > United States > Alabama
Elevation: 374 feet     Latitude: 31 19N     Longitude: 085 27W

WEATHER
 
SELECT A DAY
Number of Records: 193,411;   Date Range: 1/1/95 - 8/28/14
 
SHARE

PRINT THIS DATA

[ ← Previous Day ]
WEATHER ALMANAC - JANUARY 31, 2013
[ Next Day → ]
[ °C ]   °F
Weather ElementAverageHighLow
Temperature46.1 °F55 °F (1:53 pm)37 °F (6:53 am)
Dewpoint26.3 °F30.9 °F (7:53 pm)21 °F (11:53 am)
Humidity48.6 %70 % (4:53 am)28 % (2:53 pm)
Barometer30.21 in30.30 in (10:53 pm)30.09 in (1:53 am)
Wind Speed11.1 mph19.6 mph (11:53 am)
Wind Gust25.3 mph (1:53 am)
Weather ElementAverage
Visibility10 mi
Wind DirectionWNW (298.9 °)

Weather ElementTotal
Precipitation---
Heating Degree Days19 (Base 65)
Averaged from 19 records on January 31, 2013
WEATHER CONDITIONS BREAKOUT
WIND DIRECTION BREAKOUT
WEATHER BY HOUR - JANUARY 31, 2013
[ °C ]   °F
Local TimeTemperatureDewpointHumidityBarometerVisibilityWind DirectionWind SpeedGust SpeedPrecipitationEventsConditions
1:53 AM42.1 °F27.0 °F55 %30.09 in10.0 miNW (310°)16.1 mph25.3 mphClear
2:53 AM41.0 °F28.0 °F60 %30.11 in10.0 miWNW (300°)13.8 mph21.9 mphClear
3:53 AM39.0 °F28.9 °F67 %30.12 in10.0 miWNW (300°)12.7 mphClear
4:53 AM37.9 °F28.9 °F70 %30.12 in10.0 miNW (320°)10.4 mphClear
6:53 AM37.0 °F28.0 °F70 %30.17 in10.0 miNW (310°)10.4 mphClear
7:53 AM39.9 °F28.9 °F65 %30.20 in10.0 miWNW (300°)10.4 mphClear
8:53 AM43.0 °F28.0 °F56 %30.22 in10.0 miNW (310°)16.1 mph20.7 mphClear
9:53 AM46.0 °F26.1 °F46 %30.25 in10.0 miNW (320°)13.8 mph23.0 mphClear
10:53 AM48.9 °F24.1 °F38 %30.25 in10.0 miWNW (300°)16.1 mphClear
11:53 AM51.1 °F21.0 °F31 %30.24 in10.0 miNW (320°)19.6 mphClear
12:53 PM53.1 °F23.0 °F31 %30.22 in10.0 miNNW (340°)9.2 mph21.9 mphClear
1:53 PM55.0 °F23.0 °F29 %30.22 in10.0 miNW (320°)13.8 mph19.6 mphClear
2:53 PM55.0 °F21.9 °F28 %30.21 in10.0 miNW (320°)12.7 mphClear
3:53 PM55.0 °F24.1 °F30 %30.22 in10.0 miNW (320°)11.5 mphClear
4:53 PM52.0 °F25.0 °F35 %30.22 in10.0 miNW (310°)5.8 mphClear
5:53 PM48.9 °F26.1 °F41 %30.25 in10.0 miWest (280°)4.6 mphClear
6:53 PM46.9 °F26.1 °F44 %30.27 in10.0 miWSW (240°)3.5 mphClear
7:53 PM43.0 °F30.9 °F62 %30.29 in10.0 miSW (230°)4.6 mphClear
10:53 PM41.0 °F30.0 °F65 %30.30 in10.0 miSW (230°)5.8 mphClear
Hourly data recorded from KDHN, located miles away from Dothan, Alabama







STORIES FROM OUR PARTNERS